Weather History for Valley City, ND

Change the Weather History Date:

Monday, January 21, 2013

  Actual Average (KJMS) Record (KJMS)
Temperature  
Mean Temperature -7 °F 10 °F  
Max Temperature 0 °F 20 °F 49 °F (1942)
Min Temperature -14 °F 0 °F -32 °F (1954)
Degree Days  
Heating Degree Days 72 55  
Month to date heating degree days 1153  
Since 1 July heating degree days 4813  
Cooling Degree Days 0 0  
Month to date cooling degree days 0  
Year to date cooling degree days 0  
Moisture  
Dew Point -17 °F    
Average Humidity 69    
Maximum Humidity 77    
Minimum Humidity 60    
Precipitation  
Precipitation 0.00 in 0.01 in 0.93 in (1952)
Month to date precipitation 0.33  
Year to date precipitation 0.33  
Sea Level Pressure  
Sea Level Pressure 30.27 in    
Wind  
Wind Speed 15 mph (NW)    
Max Wind Speed 23 mph    
Max Gust Speed 29 mph    
Visibility 10 miles    
Events Snow    
T = Trace of Precipitation, MM = Missing Value Source: NWS Daily Summary

Daily Weather History Graph

Daily Weather History Graph

Search for Another Location

Airport:

Trip Planner

Search our weather history database for the weather conditions in past years. The results will help you decide how hot, cold, wet, or windy it might be!

Date:

Astronomy

Jan. 21, 2013 Rise Set
Actual Time 8:08 AM CST 5:19 PM CST
Civil Twilight 7:34 AM CST 5:52 PM CST
Nautical Twilight 6:57 AM CST 6:29 PM CST
Astronomical Twilight 6:21 AM CST 7:06 PM CST
Moon 12:58 PM CST (1/21) 3:38 AM CST (1/21)
Length of Visible Light 10h 17m
Length of Day
9h 10m
Waxing Gibbous, 75% of the Moon is Illuminated
Jan 21
Waxing Gibbous
Jan 26
Full
Feb 3
Last Quarter
Feb 10
New
Feb 17
First Quarter

Hourly Weather History & Observations

Time (CST) Temp. Windchill Dew Point Humidity Pressure Visibility Wind Dir Wind Speed Gust Speed Precip Events Conditions
12:15 AM -13.0 °F -37.5 °F -20.2 °F 70% 30.33 in 10.0 mi NW 17.3 mph 21.9 mph N/A   Scattered Clouds
12:35 AM -13.0 °F -36.8 °F -20.2 °F 70% 30.33 in 10.0 mi NW 16.1 mph 23.0 mph N/A   Mostly Cloudy
12:55 AM -13.0 °F -36.0 °F -20.2 °F 70% 30.33 in 10.0 mi NW 15.0 mph 20.7 mph N/A   Scattered Clouds
1:15 AM -13.0 °F -35.2 °F -20.2 °F 70% 30.32 in 10.0 mi NW 13.8 mph 23.0 mph N/A   Partly Cloudy
1:35 AM -13.0 °F -37.5 °F -22.0 °F 64% 30.32 in 10.0 mi NW 17.3 mph 24.2 mph N/A   Partly Cloudy
1:55 AM -13.0 °F -36.0 °F -22.0 °F 64% 30.32 in 10.0 mi NW 15.0 mph 23.0 mph N/A   Clear
2:15 AM -13.0 °F -38.2 °F -22.0 °F 64% 30.32 in 10.0 mi NW 18.4 mph 23.0 mph N/A   Clear
2:35 AM -13.0 °F -36.8 °F -22.0 °F 64% 30.33 in 10.0 mi NW 16.1 mph 24.2 mph N/A   Clear
2:55 AM -13.0 °F -37.5 °F -22.0 °F 64% 30.32 in 10.0 mi NW 17.3 mph 23.0 mph N/A   Clear
3:15 AM -13.0 °F -36.0 °F -22.0 °F 64% 30.32 in 10.0 mi NW 15.0 mph - N/A   Clear
3:35 AM -13.0 °F -36.8 °F -22.0 °F 64% 30.31 in 10.0 mi NW 16.1 mph - N/A   Clear
3:55 AM -13.0 °F -36.0 °F -22.0 °F 64% 30.31 in 10.0 mi NW 15.0 mph - N/A   Clear
4:15 AM -13.0 °F -34.3 °F -22.0 °F 64% 30.32 in 10.0 mi NW 12.7 mph - N/A   Clear
4:35 AM -13.0 °F -36.0 °F -22.0 °F 64% 30.31 in 10.0 mi NW 15.0 mph 19.6 mph N/A   Clear
4:55 AM -13.0 °F -35.2 °F -20.2 °F 70% 30.30 in 10.0 mi NW 13.8 mph 19.6 mph N/A   Clear
5:15 AM -13.0 °F -35.2 °F -20.2 °F 70% 30.30 in 10.0 mi NW 13.8 mph - N/A   Clear
5:35 AM -14.8 °F -36.6 °F -22.0 °F 70% 30.30 in 10.0 mi NW 12.7 mph - N/A   Clear
5:55 AM -14.8 °F -35.6 °F -22.0 °F 70% 30.29 in 10.0 mi NW 11.5 mph - N/A   Clear
6:15 AM -14.8 °F -33.5 °F -22.0 °F 70% 30.29 in 10.0 mi WNW 9.2 mph - N/A   Clear
6:35 AM -14.8 °F -37.5 °F -22.0 °F 70% 30.30 in 10.0 mi WNW 13.8 mph - N/A   Clear
6:55 AM -14.8 °F -37.5 °F -22.0 °F 70% 30.29 in 10.0 mi WNW 13.8 mph - N/A   Clear
7:15 AM -14.8 °F -37.5 °F -22.0 °F 70% 30.28 in 10.0 mi WNW 13.8 mph 20.7 mph N/A   Clear
7:35 AM -14.8 °F -36.6 °F -22.0 °F 70% 30.28 in 10.0 mi NW 12.7 mph - N/A   Clear
7:55 AM -14.8 °F -37.5 °F -22.0 °F 70% 30.28 in 10.0 mi WNW 13.8 mph - N/A   Clear
8:15 AM -14.8 °F -39.1 °F -20.2 °F 77% 30.28 in 10.0 mi WNW 16.1 mph - N/A   Clear
8:35 AM -13.0 °F -36.8 °F -20.2 °F 70% 30.29 in 10.0 mi NW 16.1 mph - N/A   Clear
8:55 AM -13.0 °F -37.5 °F -20.2 °F 70% 30.29 in 10.0 mi WNW 17.3 mph 23.0 mph N/A   Clear
9:15 AM -13.0 °F -36.8 °F -20.2 °F 70% 30.29 in 10.0 mi WNW 16.1 mph 23.0 mph N/A   Clear
9:35 AM -11.2 °F -35.2 °F -20.2 °F 64% 30.29 in 10.0 mi WNW 17.3 mph 24.2 mph N/A   Clear
9:55 AM -11.2 °F -38.2 °F -18.4 °F 70% 30.29 in 10.0 mi WNW 23.0 mph 26.5 mph N/A Snow Light Snow
10:15 AM -11.2 °F -36.4 °F -18.4 °F 70% 30.29 in 10.0 mi WNW 19.6 mph 24.2 mph N/A Snow Light Snow
10:35 AM -9.4 °F -33.5 °F -18.4 °F 65% 30.29 in 10.0 mi NW 18.4 mph 21.9 mph N/A Snow Light Snow
10:55 AM -9.4 °F -31.4 °F -16.6 °F 71% 30.29 in 10.0 mi WNW 15.0 mph 21.9 mph N/A Snow Light Snow
11:15 AM -7.6 °F -31.1 °F -16.6 °F 65% 30.29 in 10.0 mi WNW 18.4 mph 23.0 mph N/A   Partly Cloudy
11:35 AM -7.6 °F -32.3 °F -16.6 °F 65% 30.28 in 10.0 mi WNW 20.7 mph - N/A   Clear
11:55 AM -5.8 °F -29.9 °F -14.8 °F 65% 30.27 in 10.0 mi NW 20.7 mph 24.2 mph N/A Snow Light Snow
12:15 PM -4.0 °F -28.1 °F -13.0 °F 65% 30.26 in 10.0 mi WNW 21.9 mph 28.8 mph N/A Snow Light Snow
12:35 PM -4.0 °F -27.6 °F -13.0 °F 65% 30.25 in 10.0 mi NW 20.7 mph 26.5 mph N/A Snow Light Snow
12:55 PM -4.0 °F -26.4 °F -13.0 °F 65% 30.24 in 10.0 mi NW 18.4 mph 24.2 mph N/A   Partly Cloudy
1:15 PM -2.2 °F -25.2 °F -11.2 °F 66% 30.23 in 10.0 mi WNW 20.7 mph 25.3 mph N/A   Partly Cloudy
1:35 PM -2.2 °F -24.7 °F -11.2 °F 66% 30.23 in 10.0 mi NW 19.6 mph 27.6 mph N/A Snow Light Snow
1:55 PM -2.2 °F -25.2 °F -11.2 °F 66% 30.23 in 10.0 mi NW 20.7 mph 25.3 mph N/A Snow Light Snow
2:15 PM -0.4 °F -22.8 °F -11.2 °F 60% 30.23 in 10.0 mi NW 20.7 mph 26.5 mph N/A   Scattered Clouds
2:35 PM -2.2 °F -24.7 °F -11.2 °F 66% 30.23 in 10.0 mi NW 19.6 mph 25.3 mph N/A Snow Light Snow
2:55 PM -2.2 °F -25.2 °F -11.2 °F 66% 30.23 in 10.0 mi NW 20.7 mph - N/A Snow Light Snow
3:15 PM -0.4 °F -20.5 °F -11.2 °F 60% 30.24 in 10.0 mi NW 16.1 mph - N/A   Mostly Cloudy
3:35 PM -2.2 °F -25.2 °F - N/A% 30.24 in 10.0 mi NW 20.7 mph 24.2 mph N/A   Mostly Cloudy
3:55 PM -2.2 °F -21.5 °F -11.2 °F 66% 30.25 in 10.0 mi NW 13.8 mph 20.7 mph N/A   Mostly Cloudy
4:15 PM -2.2 °F -21.5 °F - N/A% 30.25 in 10.0 mi NW 13.8 mph 20.7 mph N/A   Mostly Cloudy
4:35 PM -2.2 °F -22.2 °F -13.0 °F 60% 30.24 in 10.0 mi NW 15.0 mph - N/A   Partly Cloudy
4:55 PM -4.0 °F -22.1 °F -13.0 °F 65% 30.24 in 10.0 mi NW 11.5 mph - N/A   Partly Cloudy
5:15 PM -4.0 °F -21.2 °F -13.0 °F 65% 30.24 in 10.0 mi NW 10.4 mph - N/A   Partly Cloudy
5:35 PM -4.0 °F -19.0 °F -13.0 °F 65% 30.24 in 10.0 mi NNW 8.1 mph - N/A   Clear
5:55 PM -5.8 °F -21.2 °F -13.0 °F 71% 30.24 in 10.0 mi NW 8.1 mph - N/A   Clear
6:15 PM -7.6 °F -24.6 °F -13.0 °F 77% 30.23 in 10.0 mi NNW 9.2 mph - N/A   Clear
6:55 PM -7.6 °F -18.8 °F -13.0 °F 77% 30.24 in 10.0 mi NW 4.6 mph - N/A   Clear
7:15 PM -9.4 °F -22.7 °F -14.8 °F 77% 30.24 in 10.0 mi NW 5.8 mph - N/A   Clear
7:35 PM -9.4 °F -24.3 °F -16.6 °F 71% 30.24 in 10.0 mi NW 6.9 mph - N/A   Clear
7:55 PM -11.2 °F -27.8 °F -16.6 °F 77% 30.24 in 10.0 mi NNW 8.1 mph - N/A   Clear
8:15 PM -9.4 °F -25.6 °F -16.6 °F 71% 30.24 in 10.0 mi WNW 8.1 mph - N/A   Clear
8:35 PM -9.4 °F -28.9 °F -16.6 °F 71% 30.24 in 10.0 mi NW 11.5 mph - N/A   Clear
8:55 PM -9.4 °F -25.6 °F -16.6 °F 71% 30.24 in 10.0 mi WNW 8.1 mph - N/A   Clear
9:15 PM -11.2 °F -30.1 °F -16.6 °F 77% 30.24 in 10.0 mi WNW 10.4 mph - N/A   Clear
9:35 PM -9.4 °F -24.3 °F -16.6 °F 71% 30.24 in 10.0 mi WNW 6.9 mph - N/A   Clear
9:55 PM -11.2 °F -30.1 °F -16.6 °F 77% 30.24 in 10.0 mi WNW 10.4 mph - N/A   Clear
10:15 PM -11.2 °F -29.0 °F -16.6 °F 77% 30.24 in 10.0 mi WNW 9.2 mph - N/A   Clear
10:35 PM -11.2 °F -30.1 °F -16.6 °F 77% 30.24 in 10.0 mi NW 10.4 mph - N/A   Clear
10:55 PM -9.4 °F -29.8 °F -16.6 °F 71% 30.25 in 10.0 mi NW 12.7 mph - N/A   Clear
11:15 PM -9.4 °F -28.9 °F -16.6 °F 71% 30.25 in 10.0 mi WNW 11.5 mph - N/A   Clear
11:35 PM -9.4 °F -29.8 °F -16.6 °F 71% 30.25 in 10.0 mi NW 12.7 mph - N/A   Clear
11:55 PM -9.4 °F -28.9 °F -16.6 °F 71% 30.26 in 10.0 mi NW 11.5 mph - N/A   Clear